Location: Cactus School
(34.5700°N, 118.0931°W)
Time: 11:43:42
(UTC-07:00)

Explorer 11/Cluster Stage 4 - All Passes

Search period start: 23 April 2024 00:00
Search period end: 03 May 2024 00:00
Orbit: 465 x 1219 km, 28.8° (Epoch: 23 April)

Date Brightness Start Highest point End Pass type
(mag) Time Alt. Az. Time Alt. Az. Time Alt. Az.
23 Apr - 00:57:25 10° SW 01:00:58 33° S 01:05:04 10° ESE night (unlit)
23 Apr - 02:44:23 10° WSW 02:48:31 40° S 02:53:33 10° ESE visible
23 Apr - 04:32:01 10° WSW 04:36:19 27° SSW 04:41:25 10° SE visible
23 Apr - 06:22:00 10° SW 06:24:12 12° SSW 06:26:31 10° S daylight
23 Apr - 22:54:32 10° SSW 22:56:34 14° SSE 22:58:39 10° SE night (unlit)
24 Apr - 00:40:20 10° SW 00:43:46 33° S 00:47:41 10° ESE night (unlit)
24 Apr - 02:27:22 10° WSW 02:31:17 37° S 02:36:00 10° ESE visible
24 Apr - 04:15:05 10° WSW 04:19:00 24° SSW 04:23:38 10° SE visible
24 Apr - 22:37:10 10° SSW 22:39:21 15° SSE 22:41:35 10° ESE night (unlit)
25 Apr - 00:23:15 10° WSW 00:26:36 33° S 00:30:19 10° ESE night (unlit)
25 Apr - 02:10:22 10° WSW 02:14:04 35° S 02:18:28 10° ESE night (unlit)
25 Apr - 03:58:12 10° WSW 04:01:43 21° SSW 04:05:48 10° SSE visible
25 Apr - 22:19:47 10° SSW 22:22:09 16° SSE 22:24:31 10° ESE night (unlit)
26 Apr - 00:06:07 10° WSW 00:09:25 32° S 00:12:59 10° ESE night (unlit)
26 Apr - 01:53:20 10° WSW 01:56:52 32° S 02:00:56 10° ESE night (unlit)
26 Apr - 03:41:21 10° WSW 03:44:26 18° SSW 03:47:56 10° SSE visible
26 Apr - 22:02:21 10° SSW 22:04:56 18° SSE 22:07:28 10° ESE night (unlit)
26 Apr - 23:48:58 10° WSW 23:52:14 32° S 23:55:41 10° ESE night (unlit)
27 Apr - 01:36:19 10° WSW 01:39:39 29° S 01:43:26 10° SE night (unlit)
27 Apr - 03:24:35 10° SW 03:27:10 15° SSW 03:30:00 10° SSE night (unlit)
27 Apr - 21:44:54 10° SW 21:47:44 20° SSE 21:50:25 10° ESE visible
27 Apr - 23:31:46 10° WSW 23:35:02 32° S 23:38:24 10° ESE night (unlit)
28 Apr - 01:19:16 10° WSW 01:22:26 27° S 01:25:56 10° SE night (unlit)
28 Apr - 03:07:56 10° SW 03:09:53 13° SSW 03:11:59 10° S night (unlit)
28 Apr - 21:27:25 10° SW 21:30:30 22° SSE 21:33:22 10° ESE visible
28 Apr - 23:14:32 10° WSW 23:17:51 33° S 23:21:09 10° ESE night (unlit)
29 Apr - 01:02:11 10° WSW 01:05:12 24° S 01:08:28 10° SE night (unlit)
29 Apr - 02:51:39 10° SSW 02:52:36 11° SSW 02:53:34 10° S night (unlit)
29 Apr - 19:25:00 10° S 19:25:49 10° SSE 19:26:37 10° SSE daylight
29 Apr - 21:09:54 10° SW 21:13:16 24° SSE 21:16:19 10° ESE visible
29 Apr - 22:57:16 10° WSW 23:00:38 33° S 23:03:55 10° ESE night (unlit)
30 Apr - 00:45:05 10° WSW 00:47:59 22° SSW 00:51:00 10° SE night (unlit)
30 Apr - 19:06:23 10° S 19:08:30 13° SSE 19:10:29 10° SE daylight
30 Apr - 20:52:21 10° SW 20:56:00 27° S 20:59:15 10° ESE visible
30 Apr - 22:39:56 10° WSW 22:43:25 33° S 22:46:42 10° ESE visible
01 May - 00:27:58 10° WSW 00:30:44 21° SSW 00:33:33 10° SE night (unlit)
01 May - 18:48:13 10° SSW 18:51:10 15° SSE 18:53:50 10° SE daylight
01 May - 20:34:45 10° SW 20:38:44 29° S 20:42:11 10° ESE visible
01 May - 22:22:33 10° WSW 22:26:11 34° S 22:29:30 10° ESE visible
02 May - 00:10:48 10° WSW 00:13:28 19° SSW 00:16:08 10° SSE night (unlit)
02 May - 18:30:09 10° SSW 18:33:48 18° SSE 18:37:00 10° ESE daylight
02 May - 20:17:07 10° SW 20:21:26 32° S 20:25:05 10° ESE visible
02 May - 22:05:08 10° WSW 22:08:55 34° S 22:12:18 10° ESE visible
02 May - 23:53:36 10° WSW 23:56:11 18° SSW 23:58:42 10° SSE night (unlit)
